Location: Cruquius
(52.3348°N, 4.6319°E)
Time: 03:08:14
(UTC+00:00)

Cosmos 1943 Rocket - Pass Details

Date: 12 May 2021
Orbit: 813 x 842 km, 71.0° (Epoch: 14 June)

Event Time Altitude Azimuth Distance (km) Brightness Sun altitude
Exits shadow 23:35:53 13° 238° (WSW) 2,257 4.1 -19.3°
Maximum altitude 23:40:45 47° 310° (NW) 1,100 3.0 -19.3°
Drops below altitude 10° 23:46:09 10° 24° (NNE) 2,441 5.6 -19.3°
Sets 23:48:41 0° 30° (NNE) 3,373 6.4 -19.2°
